NKS1888 TJSJ-KMCO

Flight info

Callsign NKS1888
Flight time 2h 49m
Altitude 34000
Route ACONY3 SAPPO Y280 OCTAL MUNGI1
Aircraft A321/M-SDE3FGHIRWY/LB1

Departure

Time 2026-04-20 16:04
Airport Luis Munoz Marin International Airport (TJSJ)

Arrival

Time 2026-04-20 18:54
Airport Orlando International Airport (KMCO)
Time Latitude Longitude Altitude Speed Heading
2026-04-20 15:43 18.43622 -66.00280 17 ft 0 kts 343°
2026-04-20 15:50 18.43600 -66.00273 17 ft 4 kts 342°
2026-04-20 15:51 18.43578 -66.00267 17 ft 4 kts 340°
2026-04-20 15:51 18.43555 -66.00254 18 ft 4 kts 310°
2026-04-20 15:51 18.43545 -66.00230 18 ft 4 kts 270°
2026-04-20 15:51 18.43547 -66.00202 17 ft 4 kts 265°
2026-04-20 15:52 18.43548 -66.00193 17 ft 0 kts 270°
2026-04-20 15:54 18.43548 -66.00194 17 ft 0 kts 270°
2026-04-20 15:54 18.43545 -66.00202 19 ft 2 kts 249°
2026-04-20 15:54 18.43532 -66.00218 17 ft 3 kts 219°
2026-04-20 15:55 18.43518 -66.00225 18 ft 4 kts 208°
2026-04-20 15:55 18.43486 -66.00241 17 ft 6 kts 222°
2026-04-20 15:55 18.43466 -66.00282 17 ft 7 kts 262°
2026-04-20 15:55 18.43464 -66.00345 17 ft 10 kts 270°
2026-04-20 15:56 18.43464 -66.00418 17 ft 10 kts 270°
2026-04-20 15:56 18.43465 -66.00493 17 ft 11 kts 270°
2026-04-20 15:56 18.43465 -66.00572 17 ft 11 kts 270°
2026-04-20 15:56 18.43466 -66.00652 17 ft 11 kts 270°
2026-04-20 15:57 18.43466 -66.00736 17 ft 12 kts 270°
2026-04-20 15:57 18.43465 -66.00822 17 ft 12 kts 270°
2026-04-20 15:57 18.43465 -66.00909 17 ft 12 kts 270°
2026-04-20 15:57 18.43466 -66.00998 17 ft 12 kts 270°
2026-04-20 15:58 18.43466 -66.01089 17 ft 13 kts 270°
2026-04-20 15:58 18.43467 -66.01182 17 ft 13 kts 270°
2026-04-20 15:58 18.43468 -66.01276 17 ft 13 kts 270°
2026-04-20 15:58 18.43486 -66.01348 18 ft 9 kts 317°
2026-04-20 15:59 18.43552 -66.01361 17 ft 10 kts
2026-04-20 15:59 18.43621 -66.01358 17 ft 10 kts
2026-04-20 15:59 18.43693 -66.01358 17 ft 11 kts
2026-04-20 15:59 18.43762 -66.01374 17 ft 10 kts 323°
2026-04-20 16:00 18.43781 -66.01418 17 ft 6 kts 272°
2026-04-20 16:00 18.43771 -66.01455 17 ft 3 kts 249°
2026-04-20 16:00 18.43769 -66.01460 17 ft 0 kts 249°
2026-04-20 16:01 18.43768 -66.01463 17 ft 1 kts 249°
2026-04-20 16:01 18.43763 -66.01477 22 ft 3 kts 249°
2026-04-20 16:02 18.43755 -66.01503 17 ft 4 kts 262°
2026-04-20 16:02 18.43757 -66.01516 17 ft 0 kts 282°
2026-04-20 16:02 18.43757 -66.01517 17 ft 0 kts 282°
2026-04-20 16:03 18.43765 -66.01533 19 ft 5 kts 298°
2026-04-20 16:03 18.43800 -66.01563 17 ft 7 kts 334°
2026-04-20 16:03 18.43845 -66.01556 17 ft 7 kts 43°
2026-04-20 16:03 18.43889 -66.01461 17 ft 37 kts 66°
2026-04-20 16:04 18.44076 -66.00995 18 ft 99 kts 67°
2026-04-20 16:04 18.44418 -66.00152 20 ft 149 kts 67°
2026-04-20 16:04 18.44857 -65.99089 412 ft 160 kts 67°
2026-04-20 16:04 18.45311 -65.98004 1036 ft 164 kts 67°
2026-04-20 16:05 18.45777 -65.96873 1486 ft 174 kts 70°
2026-04-20 16:05 18.46275 -65.95667 1756 ft 187 kts 68°
2026-04-20 16:05 18.46927 -65.94381 1854 ft 214 kts 51°
2026-04-20 16:05 18.48248 -65.93484 2007 ft 243 kts 19°
2026-04-20 16:06 18.50015 -65.93427 2284 ft 268 kts 348°
2026-04-20 16:06 18.51685 -65.94334 2849 ft 278 kts 320°
2026-04-20 16:06 18.52915 -65.95942 3389 ft 286 kts 303°
2026-04-20 16:06 18.53966 -65.97730 4044 ft 288 kts 302°
2026-04-20 16:07 18.54997 -65.99552 4715 ft 291 kts 302°
2026-04-20 16:07 18.56206 -66.01263 5315 ft 292 kts 310°
2026-04-20 16:07 18.57496 -66.02922 5959 ft 293 kts 311°
2026-04-20 16:07 18.58811 -66.04584 6545 ft 297 kts 311°
2026-04-20 16:08 18.60140 -66.06252 7160 ft 298 kts 311°
2026-04-20 16:08 18.61476 -66.07933 7744 ft 299 kts 311°
2026-04-20 16:08 18.62819 -66.09629 8275 ft 303 kts 311°
2026-04-20 16:08 18.64169 -66.11340 8897 ft 303 kts 310°
2026-04-20 16:09 18.65515 -66.13052 9506 ft 305 kts 311°
2026-04-20 16:09 18.66873 -66.14777 10086 ft 306 kts 310°
2026-04-20 16:09 18.68248 -66.16522 10271 ft 323 kts 310°
2026-04-20 16:09 18.69720 -66.18395 10386 ft 341 kts 310°
2026-04-20 16:10 18.71291 -66.20394 10520 ft 358 kts 310°
2026-04-20 16:10 18.72879 -66.22417 10823 ft 366 kts 310°
2026-04-20 16:10 18.74509 -66.24495 11272 ft 369 kts 310°
2026-04-20 16:10 18.76153 -66.26589 11774 ft 371 kts 310°
2026-04-20 16:11 18.77805 -66.28692 12305 ft 373 kts 310°
2026-04-20 16:11 18.79459 -66.30801 12874 ft 374 kts 310°
2026-04-20 16:11 18.81118 -66.32917 13427 ft 375 kts 310°
2026-04-20 16:11 18.82781 -66.35040 13965 ft 376 kts 310°
2026-04-20 16:12 18.84453 -66.37172 14429 ft 378 kts 310°
2026-04-20 16:12 18.86129 -66.39307 14940 ft 378 kts 310°
2026-04-20 16:12 18.87809 -66.41447 15401 ft 380 kts 310°
2026-04-20 16:12 18.89495 -66.43597 15912 ft 380 kts 311°
2026-04-20 16:13 18.91177 -66.45743 16464 ft 378 kts 311°
2026-04-20 16:13 18.92887 -66.47866 16913 ft 381 kts 315°
2026-04-20 16:13 18.94794 -66.49821 17294 ft 383 kts 317°
2026-04-20 16:13 18.96726 -66.51774 17674 ft 387 kts 317°
2026-04-20 16:14 18.98675 -66.53746 18088 ft 389 kts 317°
2026-04-20 16:14 19.00629 -66.55727 18499 ft 391 kts 317°
2026-04-20 16:14 19.02592 -66.57720 18868 ft 392 kts 317°
2026-04-20 16:14 19.04561 -66.59720 19258 ft 393 kts 317°
2026-04-20 16:15 19.06538 -66.61730 19605 ft 396 kts 317°
2026-04-20 16:15 19.08445 -66.63838 19947 ft 399 kts 310°
2026-04-20 16:15 19.10213 -66.66108 20277 ft 401 kts 310°
2026-04-20 16:15 19.11987 -66.68386 20646 ft 402 kts 310°
2026-04-20 16:16 19.13768 -66.70673 20977 ft 404 kts 310°
2026-04-20 16:16 19.15557 -66.72975 21312 ft 405 kts 310°
2026-04-20 16:16 19.17350 -66.75282 21630 ft 407 kts 310°
2026-04-20 16:16 19.19154 -66.77604 21946 ft 409 kts 310°
2026-04-20 16:17 19.20964 -66.79937 22242 ft 411 kts 310°
2026-04-20 16:17 19.22780 -66.82275 22530 ft 412 kts 310°
2026-04-20 16:17 19.24581 -66.84592 22833 ft 414 kts 310°
2026-04-20 16:17 19.26413 -66.86947 23128 ft 415 kts 310°
2026-04-20 16:18 19.28254 -66.89316 23421 ft 417 kts 310°
2026-04-20 16:18 19.30097 -66.91686 23710 ft 418 kts 310°
2026-04-20 16:18 19.31946 -66.94067 23959 ft 419 kts 310°
2026-04-20 16:18 19.33799 -66.96457 24216 ft 420 kts 310°
2026-04-20 16:19 19.35654 -66.98851 24481 ft 421 kts 310°
2026-04-20 16:19 19.37514 -67.01252 24730 ft 422 kts 310°
2026-04-20 16:19 19.39379 -67.03658 24976 ft 423 kts 310°
2026-04-20 16:19 19.41248 -67.06068 25227 ft 424 kts 310°
2026-04-20 16:20 19.43123 -67.08488 25473 ft 425 kts 310°
2026-04-20 16:20 19.45000 -67.10916 25725 ft 426 kts 310°
2026-04-20 16:20 19.46880 -67.13349 25973 ft 427 kts 310°
2026-04-20 16:20 19.48763 -67.15790 26221 ft 428 kts 310°
2026-04-20 16:21 19.50654 -67.18239 26465 ft 429 kts 310°
2026-04-20 16:21 19.52550 -67.20692 26714 ft 430 kts 310°
2026-04-20 16:21 19.54446 -67.23148 26949 ft 431 kts 309°
2026-04-20 16:21 19.56348 -67.25616 27190 ft 432 kts 309°
2026-04-20 16:22 19.58255 -67.28085 27424 ft 433 kts 309°
2026-04-20 16:22 19.60142 -67.30525 27644 ft 434 kts 309°
2026-04-20 16:22 19.62080 -67.33039 27872 ft 435 kts 309°
2026-04-20 16:22 19.63996 -67.35529 28108 ft 436 kts 309°
2026-04-20 16:23 19.65918 -67.38027 28355 ft 437 kts 309°
2026-04-20 16:23 19.67817 -67.40495 28595 ft 438 kts 309°
2026-04-20 16:23 19.69772 -67.43035 28834 ft 439 kts 309°
2026-04-20 16:23 19.71706 -67.45548 29067 ft 440 kts 309°
2026-04-20 16:24 19.73617 -67.48033 29332 ft 440 kts 309°
2026-04-20 16:24 19.75547 -67.50545 29662 ft 438 kts 309°
2026-04-20 16:24 19.77472 -67.53049 30002 ft 437 kts 309°
2026-04-20 16:24 19.79416 -67.55579 30307 ft 436 kts 308°
2026-04-20 16:25 19.81327 -67.58069 30592 ft 434 kts 308°
2026-04-20 16:25 19.83207 -67.60518 30877 ft 433 kts 308°
2026-04-20 16:25 19.85105 -67.62989 31158 ft 431 kts 308°
2026-04-20 16:25 19.86998 -67.65453 31436 ft 430 kts 308°
2026-04-20 16:26 19.88884 -67.67910 31713 ft 428 kts 308°
2026-04-20 16:26 19.90762 -67.70362 31986 ft 427 kts 308°
2026-04-20 16:26 19.92634 -67.72809 32258 ft 426 kts 308°
2026-04-20 16:26 19.94498 -67.75245 32524 ft 425 kts 308°
2026-04-20 16:27 19.96360 -67.77676 32788 ft 423 kts 308°
2026-04-20 16:27 19.98214 -67.80099 33044 ft 422 kts 308°
2026-04-20 16:27 20.00060 -67.82520 33300 ft 421 kts 308°
2026-04-20 16:27 20.01900 -67.84935 33556 ft 420 kts 308°
2026-04-20 16:28 20.03739 -67.87346 33784 ft 419 kts 308°
2026-04-20 16:28 20.05570 -67.89748 34018 ft 418 kts 308°
2026-04-20 16:28 20.09229 -67.94546 34085 ft 417 kts 308°
2026-04-20 16:29 20.12881 -67.99331 34093 ft 416 kts 308°
2026-04-20 16:29 20.16532 -68.04115 34076 ft 416 kts 308°
2026-04-20 16:30 20.20181 -68.08907 34095 ft 416 kts 308°
2026-04-20 16:30 20.23822 -68.13699 34098 ft 417 kts 308°
2026-04-20 16:31 20.27466 -68.18500 34098 ft 417 kts 308°
2026-04-20 16:31 20.31092 -68.23276 34097 ft 418 kts 307°
2026-04-20 16:32 20.34770 -68.28126 34096 ft 418 kts 307°
2026-04-20 16:32 20.38403 -68.32915 34106 ft 418 kts 307°
2026-04-20 16:33 20.42061 -68.37741 34108 ft 418 kts 307°
2026-04-20 16:33 20.45414 -68.42787 34109 ft 417 kts 301°
2026-04-20 16:34 20.48493 -68.48024 34102 ft 417 kts 301°
2026-04-20 16:34 20.51586 -68.53261 34106 ft 417 kts 301°
2026-04-20 16:35 20.54664 -68.58501 34107 ft 417 kts 301°
2026-04-20 16:35 20.57737 -68.63740 34109 ft 416 kts 301°
2026-04-20 16:36 20.60815 -68.68977 34108 ft 416 kts 301°
2026-04-20 16:36 20.63887 -68.74216 34110 ft 416 kts 301°
2026-04-20 16:37 20.66957 -68.79459 34106 ft 416 kts 301°
2026-04-20 16:37 20.70019 -68.84704 34108 ft 416 kts 301°
2026-04-20 16:38 20.73080 -68.89943 34105 ft 416 kts 301°
2026-04-20 16:38 20.76143 -68.95181 34107 ft 415 kts 301°
2026-04-20 16:39 20.79199 -69.00418 34122 ft 415 kts 301°
2026-04-20 16:39 20.82254 -69.05657 34119 ft 415 kts 301°
2026-04-20 16:40 20.85300 -69.10893 34113 ft 415 kts 301°
2026-04-20 16:40 20.88346 -69.16127 34116 ft 414 kts 301°
2026-04-20 16:41 20.91398 -69.21358 34112 ft 414 kts 301°
2026-04-20 16:41 20.94443 -69.26589 34108 ft 414 kts 301°
2026-04-20 16:42 20.97478 -69.31824 34108 ft 414 kts 301°
2026-04-20 16:42 21.00508 -69.37065 34109 ft 414 kts 301°
2026-04-20 16:43 21.03518 -69.42264 34109 ft 414 kts 301°
2026-04-20 16:43 21.06552 -69.47493 34102 ft 414 kts 301°
2026-04-20 16:44 21.09579 -69.52725 34107 ft 413 kts 301°
2026-04-20 16:44 21.12601 -69.57960 34106 ft 413 kts 301°
2026-04-20 16:45 21.15626 -69.63194 34104 ft 413 kts 301°
2026-04-20 16:45 21.18137 -69.67541 34099 ft 413 kts 301°
2026-04-20 16:46 21.21151 -69.72772 34111 ft 413 kts 301°
2026-04-20 16:46 21.24160 -69.78009 34108 ft 412 kts 301°
2026-04-20 16:47 21.27168 -69.83244 34104 ft 412 kts 301°
2026-04-20 16:47 21.30174 -69.88479 34103 ft 412 kts 301°
2026-04-20 16:48 21.33180 -69.93714 34100 ft 412 kts 301°
2026-04-20 16:48 21.36181 -69.98951 34100 ft 412 kts 301°
2026-04-20 16:49 21.39183 -70.04194 34108 ft 412 kts 301°
2026-04-20 16:49 21.42181 -70.09436 34106 ft 412 kts 301°
2026-04-20 16:50 21.45183 -70.14682 34102 ft 412 kts 301°
2026-04-20 16:50 21.48182 -70.19928 34102 ft 412 kts 301°
2026-04-20 16:51 21.51176 -70.25174 34108 ft 412 kts 301°
2026-04-20 16:51 21.54165 -70.30422 34108 ft 412 kts 301°
2026-04-20 16:52 21.57150 -70.35667 34097 ft 412 kts 300°
2026-04-20 16:52 21.60130 -70.40920 34118 ft 411 kts 300°
2026-04-20 16:53 21.63113 -70.46170 34103 ft 411 kts 300°
2026-04-20 16:53 21.66094 -70.51419 34102 ft 411 kts 300°
2026-04-20 16:54 21.69073 -70.56668 34099 ft 412 kts 300°
2026-04-20 16:54 21.72061 -70.61924 34099 ft 412 kts 300°
2026-04-20 16:55 21.75019 -70.67147 34095 ft 412 kts 300°
2026-04-20 16:55 21.77996 -70.72408 34097 ft 412 kts 300°
2026-04-20 16:56 21.80967 -70.77676 34095 ft 412 kts 300°
2026-04-20 16:56 21.83938 -70.82941 34095 ft 411 kts 300°
2026-04-20 16:57 21.86908 -70.88198 34095 ft 411 kts 300°
2026-04-20 16:57 21.89875 -70.93458 34096 ft 411 kts 300°
2026-04-20 16:58 21.92839 -70.98725 34094 ft 411 kts 300°
2026-04-20 16:58 21.95796 -71.03999 34092 ft 411 kts 300°
2026-04-20 16:59 21.98756 -71.09272 34110 ft 411 kts 300°
2026-04-20 16:59 22.01722 -71.14549 34107 ft 412 kts 300°
2026-04-20 17:00 22.06164 -71.22467 34101 ft 412 kts 300°
2026-04-20 17:01 22.09122 -71.27752 34101 ft 412 kts 300°
2026-04-20 17:01 22.12081 -71.33042 34100 ft 412 kts 300°
2026-04-20 17:02 22.15041 -71.38340 34098 ft 412 kts 300°
2026-04-20 17:02 22.17978 -71.43599 34099 ft 412 kts 300°
2026-04-20 17:03 22.20931 -71.48900 34099 ft 412 kts 300°
2026-04-20 17:03 22.23887 -71.54203 34099 ft 412 kts 300°
2026-04-20 17:04 22.26845 -71.59511 34096 ft 412 kts 300°
2026-04-20 17:04 22.29797 -71.64816 34098 ft 412 kts 300°
2026-04-20 17:05 22.32746 -71.70126 34100 ft 412 kts 300°
2026-04-20 17:05 22.35685 -71.75439 34099 ft 412 kts 300°
2026-04-20 17:06 22.38628 -71.80754 34110 ft 412 kts 300°
2026-04-20 17:06 22.41568 -71.86059 34103 ft 412 kts 300°
2026-04-20 17:07 22.44508 -71.91377 34098 ft 412 kts 300°
2026-04-20 17:07 22.47444 -71.96685 34099 ft 411 kts 300°
2026-04-20 17:08 22.50372 -72.01995 34099 ft 411 kts 300°
2026-04-20 17:08 22.53299 -72.07310 34098 ft 411 kts 300°
2026-04-20 17:09 22.56230 -72.12622 34098 ft 411 kts 300°
2026-04-20 17:09 22.59159 -72.17931 34097 ft 411 kts 300°
2026-04-20 17:10 22.62085 -72.23250 34099 ft 411 kts 300°
2026-04-20 17:10 22.65002 -72.28571 34100 ft 411 kts 300°
2026-04-20 17:11 22.67917 -72.33890 34101 ft 411 kts 300°
2026-04-20 17:11 22.70831 -72.39205 34101 ft 410 kts 300°
2026-04-20 17:12 22.73736 -72.44518 34098 ft 410 kts 300°
2026-04-20 17:12 22.76634 -72.49828 34113 ft 409 kts 300°
2026-04-20 17:13 22.79539 -72.55131 34105 ft 409 kts 300°
2026-04-20 17:13 22.82443 -72.60435 34100 ft 409 kts 300°
2026-04-20 17:14 22.85333 -72.65739 34105 ft 408 kts 300°
2026-04-20 17:14 22.88216 -72.71030 34106 ft 407 kts 300°
2026-04-20 17:15 22.91097 -72.76318 34109 ft 407 kts 300°
2026-04-20 17:15 22.93970 -72.81611 34107 ft 407 kts 300°
2026-04-20 17:16 22.96838 -72.86902 34105 ft 407 kts 300°
2026-04-20 17:16 22.99707 -72.92185 34103 ft 406 kts 300°
2026-04-20 17:17 23.02554 -72.97438 34108 ft 406 kts 300°
2026-04-20 17:17 23.05412 -73.02711 34108 ft 405 kts 300°
2026-04-20 17:18 23.08259 -73.07978 34106 ft 404 kts 300°
2026-04-20 17:18 23.11102 -73.13240 34107 ft 403 kts 300°
2026-04-20 17:19 23.13938 -73.18499 34104 ft 403 kts 300°
2026-04-20 17:19 23.16767 -73.23746 34117 ft 402 kts 300°
2026-04-20 17:20 23.19589 -73.28984 34116 ft 401 kts 300°
2026-04-20 17:20 23.22394 -73.34212 34117 ft 399 kts 300°
2026-04-20 17:21 23.25191 -73.39417 34115 ft 398 kts 300°
2026-04-20 17:21 23.27979 -73.44612 34118 ft 397 kts 300°
2026-04-20 17:22 23.30759 -73.49799 34100 ft 397 kts 300°
2026-04-20 17:22 23.33538 -73.54987 34107 ft 397 kts 300°
2026-04-20 17:23 23.36316 -73.60168 34104 ft 396 kts 300°
2026-04-20 17:23 23.39090 -73.65347 34115 ft 396 kts 300°
2026-04-20 17:24 23.41857 -73.70531 34106 ft 395 kts 300°
2026-04-20 17:24 23.44619 -73.75708 34116 ft 395 kts 300°
2026-04-20 17:25 23.47374 -73.80883 34108 ft 395 kts 300°
2026-04-20 17:25 23.50126 -73.86053 34109 ft 394 kts 300°
2026-04-20 17:26 23.52875 -73.91225 34113 ft 394 kts 300°
2026-04-20 17:26 23.55622 -73.96396 34133 ft 394 kts 300°
2026-04-20 17:27 23.58358 -74.01558 34114 ft 393 kts 300°
2026-04-20 17:27 23.61085 -74.06718 34112 ft 392 kts 300°
2026-04-20 17:28 23.63813 -74.11871 34114 ft 392 kts 300°
2026-04-20 17:28 23.66545 -74.17017 34113 ft 392 kts 300°
2026-04-20 17:29 23.69269 -74.22171 34108 ft 392 kts 300°
2026-04-20 17:29 23.71973 -74.27287 34107 ft 392 kts 300°
2026-04-20 17:30 23.74711 -74.32475 34112 ft 392 kts 300°
2026-04-20 17:30 23.77404 -74.37601 34103 ft 392 kts 299°
2026-04-20 17:31 23.80126 -74.42766 34101 ft 393 kts 299°
2026-04-20 17:31 23.82843 -74.47939 34100 ft 393 kts 299°
2026-04-20 17:32 23.85568 -74.53121 34106 ft 393 kts 299°
2026-04-20 17:32 23.87847 -74.57462 34106 ft 393 kts 299°
2026-04-20 17:33 23.90550 -74.62614 34100 ft 394 kts 299°
2026-04-20 17:33 23.93266 -74.67810 34116 ft 394 kts 299°
2026-04-20 17:34 23.95979 -74.73010 34118 ft 394 kts 299°
2026-04-20 17:34 23.98692 -74.78210 34115 ft 394 kts 299°
2026-04-20 17:35 24.01412 -74.83413 34111 ft 394 kts 299°
2026-04-20 17:35 24.04126 -74.88617 34109 ft 394 kts 299°
2026-04-20 17:36 24.06833 -74.93825 34112 ft 394 kts 299°
2026-04-20 17:36 24.09542 -74.99034 34111 ft 394 kts 299°
2026-04-20 17:37 24.12253 -75.04250 34108 ft 394 kts 299°
2026-04-20 17:37 24.14961 -75.09464 34102 ft 394 kts 298°
2026-04-20 17:38 24.17677 -75.14692 34095 ft 395 kts 298°
2026-04-20 17:38 24.20386 -75.19931 34096 ft 396 kts 298°
2026-04-20 17:39 24.23107 -75.25181 34102 ft 396 kts 298°
2026-04-20 17:39 24.25824 -75.30433 34103 ft 396 kts 298°
2026-04-20 17:40 24.28520 -75.35659 34107 ft 396 kts 298°
2026-04-20 17:40 24.31231 -75.40922 34131 ft 396 kts 298°
2026-04-20 17:41 24.33937 -75.46182 34122 ft 396 kts 298°
2026-04-20 17:41 24.36642 -75.51445 34119 ft 396 kts 298°
2026-04-20 17:42 24.39353 -75.56702 34109 ft 396 kts 298°
2026-04-20 17:42 24.42057 -75.61973 34106 ft 396 kts 298°
2026-04-20 17:43 24.44753 -75.67242 34114 ft 396 kts 298°
2026-04-20 17:43 24.47465 -75.72512 34113 ft 396 kts 298°
2026-04-20 17:44 24.50214 -75.77754 34110 ft 396 kts 302°
2026-04-20 17:44 24.52905 -75.83023 34082 ft 390 kts 300°
2026-04-20 17:44 24.54178 -75.85596 33876 ft 379 kts 300°
2026-04-20 17:45 24.55425 -75.88109 33669 ft 370 kts 301°
2026-04-20 17:45 24.58003 -75.92929 34023 ft 365 kts 303°
2026-04-20 17:45 24.59364 -75.95278 34212 ft 365 kts 303°
2026-04-20 17:46 24.60685 -75.97667 34288 ft 366 kts 302°
2026-04-20 17:46 24.63118 -76.02475 34351 ft 347 kts 301°
2026-04-20 17:46 24.64264 -76.04761 34180 ft 337 kts 301°
2026-04-20 17:47 24.65340 -76.07015 33849 ft 341 kts 300°
2026-04-20 17:47 24.66405 -76.09394 33572 ft 352 kts 297°
2026-04-20 17:47 24.67410 -76.11888 33420 ft 361 kts 295°
2026-04-20 17:48 24.69191 -76.17164 33300 ft 374 kts 291°
2026-04-20 17:48 24.70784 -76.22666 33449 ft 380 kts 290°
2026-04-20 17:48 24.71532 -76.25463 33574 ft 382 kts 289°
2026-04-20 17:49 24.72250 -76.28277 33728 ft 383 kts 289°
2026-04-20 17:49 24.73004 -76.31084 33918 ft 383 kts 290°
2026-04-20 17:49 24.73818 -76.33869 34112 ft 382 kts 291°
2026-04-20 17:49 24.74691 -76.36630 34277 ft 383 kts 293°
2026-04-20 17:50 24.75651 -76.39375 34279 ft 387 kts 295°
2026-04-20 17:50 24.77866 -76.44855 34198 ft 399 kts 297°
2026-04-20 17:51 24.80387 -76.50365 33999 ft 401 kts 299°
2026-04-20 17:51 24.83055 -76.55643 33974 ft 396 kts 301°
2026-04-20 17:52 24.85866 -76.60856 34051 ft 396 kts 301°
2026-04-20 17:52 24.88538 -76.66144 34205 ft 395 kts 299°
2026-04-20 17:52 24.89764 -76.68850 34307 ft 395 kts 297°
2026-04-20 17:53 24.90890 -76.71606 34382 ft 394 kts 295°
2026-04-20 17:53 24.92820 -76.77252 34354 ft 393 kts 290°
2026-04-20 17:54 24.94144 -76.83095 34445 ft 393 kts 284°
2026-04-20 17:54 24.94788 -76.89079 34641 ft 394 kts 278°
2026-04-20 17:54 24.94851 -76.92095 34802 ft 394 kts 275°
2026-04-20 17:55 24.94742 -76.95113 34984 ft 395 kts 272°
2026-04-20 17:55 24.94460 -76.98122 35188 ft 395 kts 269°
2026-04-20 17:55 24.94006 -77.01101 35413 ft 394 kts 265°
2026-04-20 17:56 24.93668 -77.07028 35120 ft 383 kts 283°
2026-04-20 17:56 24.94267 -77.09877 34848 ft 383 kts 291°
2026-04-20 17:56 24.95180 -77.12641 34776 ft 385 kts 294°
2026-04-20 17:57 24.97370 -77.18066 34725 ft 389 kts 298°
2026-04-20 17:57 24.99942 -77.23328 34723 ft 391 kts 302°
2026-04-20 17:58 25.02867 -77.28372 34716 ft 391 kts 306°
2026-04-20 17:58 25.05884 -77.33376 34572 ft 392 kts 302°
2026-04-20 17:59 25.08606 -77.38586 34438 ft 392 kts 299°
2026-04-20 17:59 25.11011 -77.43970 34445 ft 391 kts 296°
2026-04-20 18:00 25.13143 -77.49479 34466 ft 390 kts 295°
2026-04-20 18:00 25.15421 -77.54897 34475 ft 389 kts 298°
2026-04-20 18:01 25.17949 -77.60184 34556 ft 390 kts 300°
2026-04-20 18:01 25.20716 -77.65323 34705 ft 390 kts 303°
2026-04-20 18:02 25.23602 -77.70389 34810 ft 390 kts 302°
2026-04-20 18:02 25.26302 -77.75574 34704 ft 389 kts 299°
2026-04-20 18:03 25.28667 -77.80947 34546 ft 389 kts 296°
2026-04-20 18:03 25.30684 -77.86485 34512 ft 388 kts 292°
2026-04-20 18:04 25.32344 -77.92161 34605 ft 388 kts 289°
2026-04-20 18:04 25.33638 -77.97949 34807 ft 387 kts 285°
2026-04-20 18:04 25.34130 -78.00830 34948 ft 387 kts 280°
2026-04-20 18:05 25.34997 -78.06675 34386 ft 384 kts 280°
2026-04-20 18:05 25.35526 -78.09556 34161 ft 383 kts 285°
2026-04-20 18:05 25.36317 -78.12382 34099 ft 386 kts 289°
2026-04-20 18:06 25.38303 -78.17928 34114 ft 389 kts 291°
2026-04-20 18:06 25.40361 -78.23463 34114 ft 389 kts 290°
2026-04-20 18:07 25.42310 -78.29042 34117 ft 389 kts 289°
2026-04-20 18:07 25.44188 -78.34651 34118 ft 389 kts 289°
2026-04-20 18:08 25.46065 -78.40257 34125 ft 389 kts 289°
2026-04-20 18:08 25.47955 -78.45869 34127 ft 389 kts 289°
2026-04-20 18:09 25.49852 -78.51484 34155 ft 389 kts 289°
2026-04-20 18:09 25.51738 -78.57097 34147 ft 389 kts 289°
2026-04-20 18:10 25.53621 -78.62716 34143 ft 389 kts 289°
2026-04-20 18:10 25.55508 -78.68332 34141 ft 389 kts 289°
2026-04-20 18:11 25.57391 -78.73945 34134 ft 389 kts 289°
2026-04-20 18:11 25.59254 -78.79515 34137 ft 388 kts 289°
2026-04-20 18:12 25.61128 -78.85122 34138 ft 388 kts 289°
2026-04-20 18:12 25.62997 -78.90729 34139 ft 388 kts 289°
2026-04-20 18:13 25.64862 -78.96339 34135 ft 388 kts 289°
2026-04-20 18:13 25.66721 -79.01944 34140 ft 388 kts 289°
2026-04-20 18:14 25.68589 -79.07551 34128 ft 388 kts 289°
2026-04-20 18:14 25.70457 -79.13162 34131 ft 388 kts 289°
2026-04-20 18:15 25.72317 -79.18777 34137 ft 388 kts 289°
2026-04-20 18:15 25.74168 -79.24385 34137 ft 387 kts 289°
2026-04-20 18:16 25.76018 -79.29994 34138 ft 387 kts 289°
2026-04-20 18:16 25.77864 -79.35599 34138 ft 387 kts 289°
2026-04-20 18:17 25.79715 -79.41208 34137 ft 387 kts 289°
2026-04-20 18:17 25.81557 -79.46822 34135 ft 387 kts 289°
2026-04-20 18:18 25.83396 -79.52430 34139 ft 386 kts 289°
2026-04-20 18:18 25.85231 -79.58037 34142 ft 386 kts 289°
2026-04-20 18:19 25.87067 -79.63638 34141 ft 386 kts 289°
2026-04-20 18:19 25.88903 -79.69235 34139 ft 386 kts 289°
2026-04-20 18:20 25.90736 -79.74838 34158 ft 386 kts 289°
2026-04-20 18:20 25.92313 -79.79466 34150 ft 386 kts 294°
2026-04-20 18:21 25.95091 -79.84589 34152 ft 387 kts 298°
2026-04-20 18:21 25.97943 -79.89669 34148 ft 387 kts 298°
2026-04-20 18:22 26.00776 -79.94748 34145 ft 387 kts 298°
2026-04-20 18:22 26.03616 -79.99828 34133 ft 387 kts 298°
2026-04-20 18:23 26.06453 -80.04906 34128 ft 387 kts 298°
2026-04-20 18:23 26.09298 -80.09986 34126 ft 386 kts 298°
2026-04-20 18:24 26.12126 -80.15065 34125 ft 386 kts 298°
2026-04-20 18:24 26.15407 -80.19819 34131 ft 394 kts 313°
2026-04-20 18:25 26.20191 -80.23008 34131 ft 408 kts 327°
2026-04-20 18:25 26.25337 -80.25667 34156 ft 408 kts 327°
2026-04-20 18:26 26.30476 -80.28341 34150 ft 407 kts 327°
2026-04-20 18:26 26.35571 -80.30997 34159 ft 407 kts 327°
2026-04-20 18:27 26.40697 -80.33673 34158 ft 407 kts 327°
2026-04-20 18:27 26.45819 -80.36354 34156 ft 407 kts 327°
2026-04-20 18:28 26.50940 -80.39038 34152 ft 406 kts 327°
2026-04-20 18:28 26.56061 -80.41723 34186 ft 407 kts 327°
2026-04-20 18:29 26.61189 -80.44399 34176 ft 407 kts 327°
2026-04-20 18:29 26.66442 -80.46856 34170 ft 412 kts 331°
2026-04-20 18:30 26.71850 -80.49012 34160 ft 413 kts 332°
2026-04-20 18:30 26.77253 -80.51130 33827 ft 407 kts 332°
2026-04-20 18:31 26.79909 -80.52200 33574 ft 405 kts 331°
2026-04-20 18:31 26.82550 -80.53287 33313 ft 404 kts 331°
2026-04-20 18:31 26.85168 -80.54379 33005 ft 399 kts 331°
2026-04-20 18:31 26.87754 -80.55463 32567 ft 396 kts 330°
2026-04-20 18:32 26.90321 -80.56538 32122 ft 392 kts 330°
2026-04-20 18:32 26.92863 -80.57596 31681 ft 388 kts 330°
2026-04-20 18:32 26.95388 -80.58642 31245 ft 385 kts 330°
2026-04-20 18:32 26.97890 -80.59680 30809 ft 382 kts 330°
2026-04-20 18:33 27.00373 -80.60713 30376 ft 379 kts 331°
2026-04-20 18:33 27.02839 -80.61737 29909 ft 377 kts 331°
2026-04-20 18:33 27.05283 -80.62753 29492 ft 373 kts 331°
2026-04-20 18:33 27.07713 -80.63762 29016 ft 372 kts 331°
2026-04-20 18:34 27.10135 -80.64767 28527 ft 370 kts 331°
2026-04-20 18:34 27.12547 -80.65771 28062 ft 369 kts 332°
2026-04-20 18:34 27.14948 -80.66776 27600 ft 368 kts 332°
2026-04-20 18:34 27.17342 -80.67783 27159 ft 367 kts 331°
2026-04-20 18:35 27.19733 -80.68790 26680 ft 367 kts 332°
2026-04-20 18:35 27.22119 -80.69795 26231 ft 366 kts 332°
2026-04-20 18:35 27.24498 -80.70795 25783 ft 365 kts 332°
2026-04-20 18:35 27.26877 -80.71794 25341 ft 364 kts 332°
2026-04-20 18:36 27.29248 -80.72790 24896 ft 364 kts 333°
2026-04-20 18:36 27.31587 -80.73768 24452 ft 363 kts 333°
2026-04-20 18:36 27.33953 -80.74758 24001 ft 363 kts 333°
2026-04-20 18:36 27.36315 -80.75758 23502 ft 363 kts 333°
2026-04-20 18:37 27.38669 -80.76765 23019 ft 361 kts 333°
2026-04-20 18:37 27.41011 -80.77771 22541 ft 359 kts 333°
2026-04-20 18:37 27.43339 -80.78776 22068 ft 358 kts 333°
2026-04-20 18:37 27.45668 -80.79784 21592 ft 359 kts 333°
2026-04-20 18:38 27.47997 -80.80795 21100 ft 359 kts 333°
2026-04-20 18:38 27.50333 -80.81811 20601 ft 361 kts 333°
2026-04-20 18:38 27.52676 -80.82828 20104 ft 360 kts 333°
2026-04-20 18:38 27.55011 -80.83841 19610 ft 359 kts 334°
2026-04-20 18:39 27.57344 -80.84852 19122 ft 359 kts 334°
2026-04-20 18:39 27.59671 -80.85863 18644 ft 358 kts 334°
2026-04-20 18:39 27.61989 -80.86878 18123 ft 357 kts 334°
2026-04-20 18:39 27.64297 -80.87901 17578 ft 356 kts 334°
2026-04-20 18:40 27.66589 -80.88939 17039 ft 355 kts 334°
2026-04-20 18:40 27.68869 -80.89993 16514 ft 354 kts 334°
2026-04-20 18:40 27.71135 -80.91061 15993 ft 352 kts 334°
2026-04-20 18:40 27.73386 -80.92141 15485 ft 351 kts 334°
2026-04-20 18:41 27.75619 -80.93231 14985 ft 349 kts 334°
2026-04-20 18:41 27.77837 -80.94334 14497 ft 347 kts 334°
2026-04-20 18:41 27.80036 -80.95443 14008 ft 345 kts 334°
2026-04-20 18:41 27.82219 -80.96551 13471 ft 343 kts 334°
2026-04-20 18:42 27.84387 -80.97665 12925 ft 341 kts 334°
2026-04-20 18:42 27.86532 -80.98775 12438 ft 334 kts 334°
2026-04-20 18:42 27.88574 -80.99820 12313 ft 311 kts 334°
2026-04-20 18:42 27.90485 -81.00801 12150 ft 293 kts 334°
2026-04-20 18:43 27.92316 -81.01743 11717 ft 286 kts 334°
2026-04-20 18:43 27.94114 -81.02661 11252 ft 281 kts 334°
2026-04-20 18:43 27.95887 -81.03578 10690 ft 281 kts 334°
2026-04-20 18:43 27.97661 -81.04510 10161 ft 281 kts 334°
2026-04-20 18:44 27.99427 -81.05443 9834 ft 279 kts 334°
2026-04-20 18:44 28.01178 -81.06375 9466 ft 277 kts 334°
2026-04-20 18:44 28.02925 -81.07314 9086 ft 278 kts 334°
2026-04-20 18:44 28.04658 -81.08252 8762 ft 275 kts 334°
2026-04-20 18:45 28.06373 -81.09186 8427 ft 273 kts 334°
2026-04-20 18:45 28.08047 -81.10123 8072 ft 272 kts 330°
2026-04-20 18:45 28.09412 -81.11555 7769 ft 268 kts 303°
2026-04-20 18:45 28.10226 -81.13453 7393 ft 269 kts 294°
2026-04-20 18:46 28.10906 -81.15418 7099 ft 266 kts 293°
2026-04-20 18:46 28.11546 -81.17374 6748 ft 266 kts 293°
2026-04-20 18:46 28.12184 -81.19335 6407 ft 264 kts 292°
2026-04-20 18:46 28.12831 -81.21288 6017 ft 265 kts 293°
2026-04-20 18:47 28.13472 -81.23243 5687 ft 264 kts 293°
2026-04-20 18:47 28.14098 -81.25192 5320 ft 264 kts 292°
2026-04-20 18:47 28.14734 -81.27149 4912 ft 266 kts 293°
2026-04-20 18:47 28.15407 -81.29098 4497 ft 265 kts 302°
2026-04-20 18:48 28.16485 -81.30695 4322 ft 247 kts 323°
2026-04-20 18:48 28.17857 -81.31765 4201 ft 233 kts 339°
2026-04-20 18:48 28.19350 -81.32324 4091 ft 221 kts 353°
2026-04-20 18:48 28.20871 -81.32441 3995 ft 218 kts
2026-04-20 18:49 28.22394 -81.32454 3817 ft 221 kts
2026-04-20 18:49 28.23917 -81.32472 3524 ft 217 kts
2026-04-20 18:49 28.25413 -81.32491 3261 ft 212 kts
2026-04-20 18:49 28.26876 -81.32511 2952 ft 205 kts
2026-04-20 18:50 28.28255 -81.32530 2683 ft 192 kts
2026-04-20 18:50 28.29541 -81.32548 2462 ft 180 kts
2026-04-20 18:50 28.30759 -81.32563 2219 ft 171 kts
2026-04-20 18:50 28.31908 -81.32577 2001 ft 159 kts
2026-04-20 18:51 28.32963 -81.32591 1794 ft 145 kts
2026-04-20 18:51 28.33944 -81.32602 1599 ft 139 kts
2026-04-20 18:51 28.34899 -81.32612 1431 ft 137 kts
2026-04-20 18:51 28.35850 -81.32619 1241 ft 138 kts
2026-04-20 18:52 28.36793 -81.32626 1059 ft 135 kts
2026-04-20 18:52 28.37753 -81.32634 851 ft 138 kts
2026-04-20 18:52 28.38704 -81.32666 742 ft 135 kts
2026-04-20 18:52 28.39655 -81.32657 611 ft 138 kts
2026-04-20 18:53 28.40613 -81.32652 358 ft 138 kts
2026-04-20 18:53 28.41556 -81.32664 162 ft 135 kts
2026-04-20 18:53 28.42423 -81.32669 100 ft 109 kts
2026-04-20 18:53 28.43018 -81.32677 102 ft 61 kts 359°
2026-04-20 18:54 28.43358 -81.32684 101 ft 40 kts 359°
2026-04-20 18:54 28.43594 -81.32674 100 ft 26 kts 10°
2026-04-20 18:54 28.43713 -81.32604 99 ft 17 kts 51°
2026-04-20 18:54 28.43774 -81.32492 100 ft 17 kts 59°
2026-04-20 18:55 28.43835 -81.32377 102 ft 17 kts 59°
2026-04-20 18:55 28.43893 -81.32268 100 ft 16 kts 59°
2026-04-20 18:55 28.43949 -81.32161 101 ft 16 kts 59°
2026-04-20 18:55 28.43989 -81.32042 100 ft 15 kts 99°
2026-04-20 18:56 28.43950 -81.31939 99 ft 15 kts 107°
2026-04-20 18:56 28.43890 -81.31851 100 ft 14 kts 160°
2026-04-20 18:56 28.43790 -81.31847 99 ft 14 kts 179°
2026-04-20 18:56 28.43690 -81.31845 100 ft 15 kts 180°
2026-04-20 18:57 28.43584 -81.31845 100 ft 16 kts 180°
2026-04-20 18:57 28.43503 -81.31824 98 ft 11 kts 133°
2026-04-20 18:57 28.43501 -81.31745 98 ft 11 kts 78°
2026-04-20 18:57 28.43489 -81.31668 96 ft 9 kts 141°
2026-04-20 18:58 28.43448 -81.31647 96 ft 6 kts 152°
2026-04-20 18:58 28.43423 -81.31605 97 ft 6 kts 118°
2026-04-20 18:58 28.43415 -81.31587 94 ft 0 kts 118°